SB KEPS @ AMSAT $ORB13234.N 2Line Orbital Elements 13234.AMSAT
HR AMSAT ORBITAL ELEMENTS FOR AMATEUR SATELLITES IN NASA FORMAT FROM WA5QGD FORT WORTH,TX August 22, 2013 BID: ORB13234.N
DECODE 2-LINE ELSETS WITH THE FOLLOWING KEY: 1 AAAAAU 00 0 0 BBBBB.BBBBBBBB .CCCCCCCC 00000-0 00000-0 0 DDDZ 2 AAAAA EEE.EEEE FFF.FFFF GGGGGGG HHH.HHHH III.IIII JJ.JJJJJJJJKKKKKZ KEY: A-CATALOGNUM B-EPOCHTIME C-DECAY D-ELSETNUM E-INCLINATION F-RAAN G-ECCENTRICITY H-ARGPERIGEE I-MNANOM J-MNMOTION K-ORBITNUM Z-CHECKSUM
TO ALL RADIO AMATEURS BT
AO-07 1 07530U 74089B 13234.52746207 -.00000030 00000-0 83768-4 0 7582 2 07530 101.4381 221.6384 0012050 156.3074 000.6801 12.53597754774095 FO-29 1 24278U 96046B 13234.16889424 -.00000037 00000-0 -60332-6 0 1829 2 24278 098.5489 283.8877 0350212 353.3446 037.4946 13.53005014840234 SO-33 1 25509U 98061B 13233.92681387 .00000303 00000-0 49377-4 0 5661 2 25509 031.4323 055.3966 0350892 013.4384 102.3220 14.29108407774300 RS-22 1 27939U 03042A 13234.79733654 .00000419 00000-0 87401-4 0 6991 2 27939 097.7988 059.1733 0013175 341.2340 018.8382 14.64543342529048 VO-52 1 28650U 05017B 13234.21533955 .00001345 00000-0 16635-3 0 5050 2 28650 097.5678 249.4320 0027015 065.9231 069.5249 14.84066118448875 HO-68 1 36122U 09072B 13234.70797604 -.00000044 00000-0 00000 0 0 8374 2 36122 100.3010 290.0617 0007347 199.8962 160.1863 13.16306376177164 UO-11 1 14781U 84021B 13234.72721759 .00000481 00000-0 68801-4 0 2644 2 14781 097.8964 295.0682 0010131 077.5267 282.7079 14.80984176583782 AO-16 1 20439U 90005D 13233.81924138 .00000090 00000-0 49476-4 0 8228 2 20439 098.4738 172.3331 0010078 329.7179 064.0716 14.32197807231634 LO-19 1 20442U 90005G 13233.91909975 .00000094 00000-0 50400-4 0 7586 2 20442 098.4435 174.0072 0010891 318.3744 081.6340 14.32407379231847 AO-27 1 22825U 93061C 13234.76004522 .00000092 00000-0 52955-4 0 4612 2 22825 098.6222 178.0948 0009582 094.2797 296.1216 14.29583564 38149 IO-26 1 22826U 93061D 13234.81708814 .00000098 00000-0 55270-4 0 2172 2 22826 098.6164 178.4245 0010117 088.0166 305.7097 14.29869931 38280 GO-32 1 25397U 98043D 13234.69857045 .00000051 00000-0 40792-4 0 1430 2 25397 098.4226 199.5870 0002480 102.6914 357.7599 14.23354739785405 NO-44 1 26931U 01043C 13233.79839794 .00000039 00000-0 47104-4 0 4006 2 26931 067.0512 090.3700 0007788 271.2054 214.2521 14.29950867620808 SO-50 1 27607U 02058C 13233.71195541 .00000572 00000-0 10892-3 0 1474 2 27607 064.5570 064.6451 0037827 140.5768 343.8206 14.73037844573366 CO-55 1 27844U 03031E 13234.80471075 .00000192 00000-0 10818-3 0 7235 2 27844 098.7026 242.9115 0010602 062.3495 015.9726 14.21257565526192 CO-57 1 27848U 03031J 13234.74950512 .00000146 00000-0 87530-4 0 6672 2 27848 098.7113 242.4045 0010618 067.8138 019.8121 14.20978703526118 AO-51 1 28375U 04025K 13234.76923014 .00000140 00000-0 54451-4 0 6356 2 28375 098.2077 187.5794 0083851 173.8491 273.9027 14.41150137480929 CP3 1 31129U 07012N 13233.71132634 .00000470 00000-0 11538-3 0 5331 2 31129 097.9034 222.6705 0099232 222.7590 187.8240 14.53772961336519 CO-65 1 32785U 08021C 13234.17975556 .00001161 00000-0 14525-3 0 7171 2 32785 097.7450 289.8169 0015762 092.8587 300.7972 14.84052296287660 PRISM 1 33493U 09002B 13234.86823025 .00002322 00000-0 26958-3 0 1051 2 33493 098.2245 034.0426 0017506 340.3387 019.7157 14.86343622247822 SOHLA-1 1 33496U 09002E 13234.14206207 .00000388 00000-0 72493-4 0 1272 2 33496 098.1415 350.0125 0007898 111.7576 303.3756 14.70350066245562 SO-67 1 35870U 09049F 13234.91602200 .00004842 00000-0 18112-3 0 3558 2 35870 097.1887 261.2959 0003748 085.9199 317.5942 15.27769360218448 TISAT-1 1 36799U 10035E 13234.82703382 .00001774 00000-0 22171-3 0 3752 2 36799 098.0333 319.9175 0013581 207.2444 152.8059 14.83562993168452 STUDSAT 1 36801U 10035G 13234.18131694 .00008051 00000-0 85762-3 0 6704 2 36801 098.0442 323.0461 0011689 186.0649 230.4902 14.89129898168537 ALMASAT-1 1 38078U 12006B 13234.88532875 .00023639 00000-0 59085-3 0 5476 2 38078 069.4676 045.8696 0680842 061.2819 305.5187 14.27929904 78752 XATCOBEO 1 38082U 12006F 13234.76557255 .00067078 37303-5 12288-2 0 4273 2 38082 069.4727 013.1802 0538979 043.2795 320.9548 14.64468853 79640 SOMP 1 39135U 13015F 13234.72909125 .00009921 00000-0 77893-3 0 2631 2 39135 064.8782 359.5579 0005110 212.7846 147.3432 15.00692102 18816 CUBEBUG-1 1 39153U 13018D 13234.88754249 .00000831 00000-0 12646-3 0 3363 2 39153 098.0707 310.6273 0017141 226.8695 133.1075 14.76559517 17523 ESTCUBE-1 1 39161U 13021C 13234.71066807 .00000735 00000-0 13361-3 0 2989 2 39161 098.1256 312.6109 0008819 262.9498 097.0711 14.69070131 15767 NOAA-10 1 16969U 86073A 13234.13432536 .00000058 00000-0 40762-4 0 4693 2 16969 098.5425 260.5259 0013020 057.0259 344.2646 14.27659124401352 NOAA-11 1 19531U 88089A 13234.49643609 .00000046 00000-0 46136-4 0 4816 2 19531 098.7075 315.9574 0012201 075.3868 355.7613 14.15025602285500 NOAA-12 1 21263U 91032A 13234.52801706 .00000023 00000-0 28122-4 0 9478 2 21263 098.6945 259.3785 0014164 031.7954 131.4162 14.25582444158002 MET-3/5 1 21655U 91056A 13233.73386461 .00000430 00000-0 10862-2 0 7657 2 21655 082.5561 207.9782 0012455 330.7638 029.2786 13.17043708 58562 MET-2/21 1 22782U 93055A 13234.80577946 .00000031 00000-0 14855-4 0 8240 2 22782 082.5479 050.0557 0022624 025.8175 103.7494 13.83710179 8853 OKEAN-4 1 23317U 94066A 13234.80414464 .00000854 00000-0 97952-4 0 3026 2 23317 082.5420 347.4354 0020817 010.4490 135.6057 14.84596824 18822 NOAA-14 1 23455U 94089A 13234.46392675 .00000032 00000-0 39869-4 0 4252 2 23455 098.8001 317.8922 0010043 164.2456 327.9812 14.13917369961737 NOAA-15 1 25338U 98030A 13234.50640669 .00000125 00000-0 72196-4 0 8468 2 25338 098.7304 224.3681 0009491 297.5747 208.5420 14.25257327794294 RESURS 1 25394U 98043A 13234.12607920 -.00000002 00000-0 17081-4 0 4503 2 25394 098.3694 206.8262 0002480 078.7132 051.9096 14.24334067785747 FENGYUN1 1 25730U 99025A 13233.85628706 .00000722 00000-0 42848-3 0 9457 2 25730 098.8830 192.5767 0024308 222.8925 170.6745 14.10606697735307 OKEAN-0 1 25860U 99039A 13233.99532168 .00000397 00000-0 66984-4 0 263 2 25860 097.9978 195.5893 0000790 091.4555 310.4192 14.74672874758052 NOAA-16 1 26536U 00055A 13234.48993204 .00000153 00000-0 10687-3 0 3341 2 26536 099.0360 287.8925 0009553 311.1433 161.3104 14.12908121665934 NOAA-17 1 27453U 02032A 13234.52825986 .00000092 00000-0 56955-4 0 2433 2 27453 098.3133 245.0926 0010907 336.4779 175.0752 14.24612591580166 NOAA-18 1 28654U 05018A 13234.49761574 .00000212 00000-0 14101-3 0 7303 2 28654 099.1074 203.6908 0014698 027.0372 120.3756 14.11852695425416 NOAA-19 1 33591U 09005A 13234.52400319 .00000169 00000-0 11776-3 0 9117 2 33591 098.9068 176.0780 0013117 240.2050 228.4265 14.11539997233857 HUBBLE 1 20580U 90037B 13234.17347571 .00001704 00000-0 10865-3 0 3092 2 20580 028.4694 200.1786 0003153 338.6351 139.7764 15.03854450 79643 ISS 1 25544U 98067A 13234.90012823 .00014318 00000-0 25425-3 0 4430 2 25544 051.6511 137.7722 0004131 349.4484 050.0126 15.50456994845059 CO-58 1 28895U 05043F 13234.78061255 .00000514 00000-0 11311-3 0 5537 2 28895 097.8624 086.8306 0016672 228.4549 131.5223 14.61202967416665 FALCON 1 30776U 07006E 13234.16642742 .00005569 00000-0 32692-3 0 6796 2 30776 035.4303 157.0914 0001866 214.9507 286.2938 15.11199501355407 MAST 1 31126U 07012K 13234.03876753 .00000340 00000-0 85321-4 0 8332 2 31126 097.8865 226.2211 0092743 206.5248 185.4899 14.54648654336896 CAPE1 1 31130U 07012P 13233.71754713 .00000455 00000-0 11257-3 0 8357 2 31130 097.9041 222.2998 0099657 223.7728 135.5539 14.53589287336297 COMPASS 1 32787U 08021E 13234.20952149 .00002955 00000-0 34544-3 0 7096 2 32787 097.7461 291.0514 0016121 088.6129 271.6933 14.85764586287765 AAUSAT2 1 32788U 08021F 13234.12979810 .00002705 00000-0 31306-3 0 6918 2 32788 097.7470 291.6572 0015618 088.2103 272.0901 14.86250124287796 DO-64 1 32789U 08021G 13234.17592981 .00005521 00000-0 59028-3 0 7230 2 32789 097.7627 295.8774 0014982 081.3522 338.7941 14.89068744287942 CO-66 1 32791U 08021J 13234.15625731 .00001637 00000-0 19839-3 0 6870 2 32791 097.7462 290.2744 0016549 090.6406 325.8020 14.84856670287665 RS-30 1 32953U 08025A 13234.86527937 .00000010 00000-0 00000 0 0 1450 2 32953 082.5008 026.7167 0019675 087.3845 272.9485 12.43036345238190 METEOR-M 1 35865U 09049A 13234.79473582 -.00000013 00000-0 13575-4 0 7401 2 35865 098.5965 285.5622 0001579 237.7279 122.3744 14.21891429203931 RS-38 1 35869U 09049E 13234.67575270 .00000012 00000-0 24707-4 0 6922 2 35869 098.5907 285.3427 0003761 240.0662 120.0141 14.22141035203949 JUGNU 1 37839U 11058B 13234.15191299 .00000390 00000-0 66487-4 0 4469 2 37839 019.9604 267.0900 0018909 290.5724 119.7920 14.12174274 96233 SRMSAT 1 37841U 11058D 13234.15481456 .00000373 00000-0 60633-4 0 4478 2 37841 019.9710 280.4344 0011668 241.7304 146.9831 14.10241474 96094 RAX-2 1 37853U 11061D 13234.26379943 .00003366 00000-0 25783-3 0 5746 2 37853 101.7018 118.5350 0233453 197.9065 311.2422 14.84110251 98241 AUBIESAT 1 37854U 11061E 13233.98149794 .00005263 00000-0 38871-3 0 5643 2 37854 101.7058 119.1291 0233162 197.1238 290.0097 14.84863745 98221 HRBE 1 37855U 11061F 13234.26935847 .00003682 00000-0 27665-3 0 5718 2 37855 101.7059 119.2605 0234377 196.8970 281.9819 14.84507599 98257 RS-39 1 38051U 11062C 13234.77671296 .00012243 00000-0 37229-3 0 7216 2 38051 051.6339 248.7368 0011332 141.2106 213.2312 15.34371611 87998 E-STAR 1 38079U 12006C 13234.84748755 .00046359 32531-5 92517-3 0 3804 2 38079 069.4758 021.9743 0584923 048.2043 045.7572 14.53150653 79409 GOLIAT 1 38085U 12006J 13234.80404814 .00049481 32716-5 99778-3 0 3093 2 38085 069.4770 024.8069 0595242 049.5407 315.6179 14.50730284 79321 HORYU-2 1 38340U 12025D 13234.55940314 .00001021 00000-0 17423-3 0 5868 2 38340 098.2215 182.8102 0013485 046.6407 313.5907 14.71097451 67872 RS-40 1 38736U 12041D 13234.08122818 .00000010 00000-0 00000 0 0 3521 2 38736 082.4795 114.0523 0020593 180.1841 179.9236 12.42870114 48438 PROITERES 1 38756U 12047B 13234.83197331 .00000473 00000-0 79547-4 0 543 2 38756 098.2489 313.0899 0011256 254.1553 105.8404 14.74303618 51212 RAIKO 1 38852U 98067CN 13218.07382584 .24681979 12625-4 36599-3 0 3409 2 38852 051.6160 184.0336 0004489 261.9162 100.6538 16.48474690 47849 FITSAT 1 1 38853U 98067CP 13184.86912902 .06638326 12312-4 50483-3 0 3153 2 38853 051.6252 351.6077 0011722 245.9321 114.2104 16.39337660 42708 TechEdSat 1 38854U 98067CQ 13124.93253577 .11592855 12481-4 94246-3 0 2908 2 38854 051.6449 297.0261 0010505 310.8629 049.0629 16.38844728 33294 F 1 1 38855U 98067CR 13129.77714356 .27424026 12535-4 30797-3 0 2871 2 38855 051.5085 272.4145 0008326 194.2908 166.5495 16.49710473 33949 WeWish 1 38856U 98067CS 13069.98095549 .16701328 12537-4 10063-2 0 2487 2 38856 051.6166 215.0521 0008325 316.0438 044.8765 16.41348316 24586 OSSI-1 1 39131U 13015B 13188.41684431 .01502874 74059-5 44818-3 0 85 2 39131 064.8841 114.8425 0051126 026.6892 350.0589 16.22925119 12374 BEESAT-3 1 39134U 13015E 13234.73795296 .00004138 00000-0 33750-3 0 3037 2 39134 064.8776 359.5027 0005231 207.7172 220.5729 15.00775333 18817 BEESAT-2 1 39136U 13015G 13234.72754962 .00003751 00000-0 29449-3 0 2919 2 39136 064.8729 359.5539 0005019 203.4288 156.6974 15.00699363 18819 /EX